{"data":{"norad_id":48951,"epoch":"2026-05-25T01:37:54.709248Z","epoch_age_seconds":79335,"freshness":"FRESH","line1":"1 48951U 21059CA  26145.06799432  .00019205  00000+0  29800-3 0  9990","line2":"2 48951  97.7042 336.7437 0008148  75.6392 284.5765 15.54003841273712","mean_motion":15.54003841,"eccentricity":0.0008148,"inclination_deg":97.7042,"raan_deg":336.7437,"arg_perigee_deg":75.6392,"mean_anomaly_deg":284.5765,"bstar":0.000298,"rev_number":27371,"period_min":92.663863628121,"perigee_km":399.5229467124,"apogee_km":410.57682806409,"semimajor_km":6783.1868873882,"source":"CELESTRAK","updated_at":"2026-05-25T13:37:56.978322Z"}}